Flag for U.S.A. Weather past 2 weeks in Wailuku, Hawaii, U.S.A.

Now
70 °F

Light rain. Mostly cloudy.


Feels Like: 67 °F
Forecast: 73 / 81 °F
Wind: 10 mph from Northeast

Location: Kahului Airport


UV Index: 3 (Moderate)

Visibility: 10 mi


Pressure: 30.13 "Hg

Humidity: 90%

Dew point: 67 °F

Location of WailukuLocation

Historic Weather in Wailuku

°F

Wailuku temperature yesterday

Maximum temperature yesterday: 82 °F (at 1:54 PM)
Minimum temperature yesterday: 71 °F (at 4:54 AM)
Average temperature yesterday: 75 °F

Past Weeks' High & Low Weather Summary

 TemperatureHumidityPressure
High84 °F (Apr 5, 11:54 AM)94% (Apr 7, 6:40 PM)30.20 "Hg (Apr 7, 6:40 PM)
Low63 °F (Apr 5, 4:54 AM)42% (Apr 14, 9:54 AM)29.96 "Hg (Apr 5, 2:54 PM)
Average73 °F72%30.09 "Hg
* Reported Apr 4 11:54 PM — Apr 19 11:54 PM, Wailuku, Weather by CustomWeather, © 2014

Note: Actual official high and low records may vary slightly from our data, if they occured in-between our weather recording intervals... More about our weather records

Advertising

Historic Weather Conditions — Data for Previous 24 hours

 ConditionsComfort  
Time TempWeatherWind HumidityBarometerVisibility
11:54 PM
Apr 19
71 °FRain. Mostly cloudy.12 mph84%30.14 "Hg7 mi
10:54 PM73 °FPassing clouds.14 mph79%30.15 "Hg10 mi
9:54 PM74 °FPassing clouds.17 mph74%30.14 "Hg10 mi
8:54 PM74 °FPassing clouds.16 mph74%30.12 "Hg10 mi
7:54 PM73 °FClear.13 mph74%30.11 "Hg10 mi
6:54 PM75 °FPassing clouds.16 mph69%30.10 "Hg10 mi
5:54 PM76 °FBroken clouds.15 mph67%30.08 "Hg10 mi
4:54 PM77 °FBroken clouds.16 mph62%30.07 "Hg10 mi
3:54 PM78 °FSunny.25 mph62%30.06 "Hg10 mi
2:54 PM80 °FBroken clouds.17 mph60%30.06 "Hg10 mi
1:54 PM82 °FScattered clouds.22 mph53%30.06 "Hg10 mi
12:54 PM81 °FScattered clouds.16 mph53%30.09 "Hg10 mi
11:54 AM79 °FScattered clouds.15 mph62%30.11 "Hg10 mi
10:54 AM78 °FScattered clouds.17 mph64%30.12 "Hg10 mi
9:54 AM74 °FLight rain. Scattered clouds.18 mph79%30.13 "Hg9 mi
8:54 AM74 °FLight rain. Partly sunny.13 mph85%30.12 "Hg8 mi
7:54 AM75 °FBroken clouds.16 mph71%30.11 "Hg10 mi
6:54 AM73 °FLight rain. Scattered clouds.16 mph79%30.09 "Hg10 mi
5:54 AM72 °FClear.13 mph73%30.08 "Hg10 mi
4:54 AM71 °FClear.12 mph73%30.06 "Hg10 mi
3:54 AM72 °FClear.14 mph73%30.06 "Hg10 mi
2:54 AM73 °FClear.14 mph74%30.06 "Hg10 mi
1:54 AM73 °FClear.14 mph71%30.08 "Hg10 mi
Weather by CustomWeather, © 2014

See weather overview